User: anonymous   Login
Location: Warszawa
(52.2500°N, 21.0000°E)
Time: 14:24:38
(UTC+02:00)
Language:

Tiangong - Orbit

View from above orbital plane
View from above orbital plane
View from above satellite
View from above satellite

Ground track
Ground track

The orbit data is extracted from the following two-line orbital elements,

1 48274U 21035A   25201.07042187  .00009697  00000-0  13548-3 0  9990
2 48274  41.4634 181.2714 0008070 311.2374  48.7767 15.56838821241282
Epoch (UTC): 20 July 2025 01:41:24
Eccentricity: 0.0008070
inclination: 41.4634°
perigee height: 391 km
apogee height: 402 km
right ascension of ascending node: 181.2714°
argument of perigee: 311.2374°
revolutions per day: 15.56838821
mean anomaly at epoch: 48.7767°
orbit number at epoch: 24128

The dashed part of the orbit path shows where the satellite is in the earth's shadow,  

DLR